Location: Balsareny
(41.8670°N, 1.8830°E)
Time: 23:32:05
(UTC+01:00)

ISS - Pass Details

Date: 06 December 2021
Orbit: 413 x 422 km, 51.6° (Epoch: 25 January)

Event Time Altitude Azimuth Distance (km) Brightness Sun altitude
Rises 17:49:37 0° 308° (NW) 2,386 0.5 -5.5°
Reaches altitude 10° 17:51:51 10° 317° (NW) 1,516 -0.7 -5.9°
Maximum altitude 17:55:01 35° 25° (NNE) 708 -3.0 -6.4°
Drops below altitude 10° 17:58:09 10° 94° (E) 1,504 -1.5 -6.9°
Enters shadow 17:59:05 - 99° (E) 1,862 -1.0 -7.1°
